TimeEET,TemperatureF,Dew PointF,Humidity,Sea Level PressureIn,VisibilityMPH,Wind Direction,Wind SpeedMPH,Gust SpeedMPH,PrecipitationIn,Events,Conditions,WindDirDegrees,DateUTC
12:50 AM,59.0,44.6,59,30.15,-9999.0,NNW,13.8,-,N/A,,Clear,330,2012-11-13 22:50:00
1:50 AM,59.0,46.4,63,30.15,-9999.0,NNW,11.5,-,N/A,,Clear,330,2012-11-13 23:50:00
2:50 AM,59.0,44.6,59,30.15,-9999.0,NW,10.4,-,N/A,,Clear,320,2012-11-14 00:50:00
3:50 AM,59.0,46.4,63,30.12,-9999.0,NNW,12.7,-,N/A,,Clear,340,2012-11-14 01:50:00
4:50 AM,57.2,48.2,72,30.15,-9999.0,NNW,11.5,23.0,N/A,,Clear,330,2012-11-14 02:50:00
5:20 AM,57.2,48.2,72,30.15,-9999.0,NNW,11.5,-,N/A,,Clear,330,2012-11-14 03:20:00
5:50 AM,57.2,48.2,72,30.15,-9999.0,NW,11.5,23.0,N/A,,Clear,320,2012-11-14 03:50:00
6:20 AM,59.0,48.2,67,30.15,-9999.0,NW,12.7,-,N/A,,Clear,320,2012-11-14 04:20:00
6:50 AM,59.0,48.2,67,30.18,6.2,NW,10.4,-,N/A,,Partly Cloudy,320,2012-11-14 04:50:00
7:20 AM,59.0,48.2,67,30.18,6.2,NNW,12.7,-,N/A,,Partly Cloudy,330,2012-11-14 05:20:00
7:50 AM,59.0,48.2,67,30.18,6.2,NNW,11.5,-,N/A,,Partly Cloudy,330,2012-11-14 05:50:00
8:50 AM,60.8,48.2,63,30.18,6.2,NNW,10.4,-,N/A,,Partly Cloudy,340,2012-11-14 06:50:00
9:20 AM,62.6,48.2,59,30.18,6.2,NNW,11.5,23.0,N/A,,Partly Cloudy,340,2012-11-14 07:20:00
9:50 AM,64.4,48.2,56,30.18,6.2,NNW,11.5,23.0,N/A,,Partly Cloudy,330,2012-11-14 07:50:00
10:20 AM,64.4,48.2,56,30.18,6.2,NNW,11.5,23.0,N/A,,Partly Cloudy,340,2012-11-14 08:20:00
10:50 AM,64.4,46.4,52,30.21,6.2,North,15.0,26.5,N/A,,Partly Cloudy,360,2012-11-14 08:50:00
11:20 AM,66.2,48.2,52,30.18,6.2,NNW,15.0,-,N/A,,Partly Cloudy,330,2012-11-14 09:20:00
11:50 AM,66.2,48.2,52,30.18,6.2,NNW,12.7,24.2,N/A,,Partly Cloudy,330,2012-11-14 09:50:00
12:20 PM,66.2,44.6,46,30.18,6.2,North,15.0,27.6,N/A,,Partly Cloudy,350,2012-11-14 10:20:00
12:50 PM,66.2,46.4,49,30.15,6.2,NNW,13.8,25.3,N/A,,Partly Cloudy,340,2012-11-14 10:50:00
1:20 PM,66.2,46.4,49,30.15,6.2,NNW,13.8,25.3,N/A,,Partly Cloudy,340,2012-11-14 11:20:00
1:50 PM,66.2,44.6,46,30.15,6.2,North,11.5,23.0,N/A,,Partly Cloudy,350,2012-11-14 11:50:00
2:20 PM,66.2,44.6,46,30.15,6.2,NNW,15.0,28.8,N/A,,Partly Cloudy,340,2012-11-14 12:20:00
2:50 PM,66.2,44.6,46,30.15,6.2,NNW,16.1,27.6,N/A,,Partly Cloudy,340,2012-11-14 12:50:00
3:20 PM,66.2,44.6,46,30.15,6.2,North,15.0,27.6,N/A,,Partly Cloudy,350,2012-11-14 13:20:00
3:50 PM,64.4,44.6,49,30.15,6.2,North,15.0,27.6,N/A,,Partly Cloudy,350,2012-11-14 13:50:00
4:20 PM,64.4,44.6,49,30.15,6.2,NNW,12.7,24.2,N/A,,Partly Cloudy,340,2012-11-14 14:20:00
4:50 PM,62.6,44.6,52,30.15,6.2,NNW,10.4,-,N/A,,Partly Cloudy,340,2012-11-14 14:50:00
5:20 PM,60.8,44.6,55,30.15,6.2,NNW,10.4,-,N/A,,Partly Cloudy,330,2012-11-14 15:20:00
5:50 PM,60.8,44.6,55,30.18,6.2,North,13.8,27.6,N/A,,Partly Cloudy,350,2012-11-14 15:50:00
6:20 PM,60.8,44.6,55,30.18,6.2,North,11.5,-,N/A,,Partly Cloudy,350,2012-11-14 16:20:00
6:50 PM,60.8,44.6,55,30.18,6.2,North,11.5,-,N/A,,Partly Cloudy,350,2012-11-14 16:50:00
7:20 PM,59.0,44.6,59,30.18,6.2,North,9.2,-,N/A,,Partly Cloudy,360,2012-11-14 17:20:00
7:50 PM,59.0,44.6,59,30.18,6.2,NNW,9.2,-,N/A,,Partly Cloudy,340,2012-11-14 17:50:00
8:20 PM,59.0,44.6,59,30.18,6.2,NNW,8.1,-,N/A,,Partly Cloudy,330,2012-11-14 18:20:00
8:50 PM,59.0,46.4,63,30.18,6.2,North,8.1,-,N/A,,Partly Cloudy,360,2012-11-14 18:50:00
9:50 PM,59.0,46.4,63,30.18,6.2,NNW,6.9,-,N/A,,Partly Cloudy,340,2012-11-14 19:50:00
10:20 PM,59.0,46.4,63,30.18,6.2,North,8.1,-,N/A,,Partly Cloudy,350,2012-11-14 20:20:00
10:50 PM,57.2,46.4,67,30.18,6.2,NNW,6.9,-,N/A,,Partly Cloudy,330,2012-11-14 20:50:00
11:50 PM,55.4,46.4,72,30.18,6.2,NNW,5.8,-,N/A,,Partly Cloudy,340,2012-11-14 21:50:00